Weather History for Rhinelander, WI

Change the Weather History Date:

Monday, December 3, 2012

  Actual Average Record
Temperature  
Mean Temperature 45 °F 21 °F  
Max Temperature 55 °F 29 °F 61 °F (1998)
Min Temperature 34 °F 14 °F -22 °F (1927)
Degree Days  
Heating Degree Days 20 44  
Month to date heating degree days 80 130  
Since 1 July heating degree days 2200 2264  
Cooling Degree Days 0 0  
Month to date cooling degree days 0 0  
Year to date cooling degree days 373 261  
Moisture  
Dew Point 44 °F    
Average Humidity 88    
Maximum Humidity 100    
Minimum Humidity 76    
Precipitation  
Precipitation 0.02 in 0.05 in 0.55 in (1934)
Month to date precipitation 0.03 0.16  
Year to date precipitation 29.27 30.12  
Snow  
Snow 0.00 in - 6.70 in (1934)
Month to date snowfall 0.0  
Since 1 July snowfall 5.5  
Snow Depth 0.00 in    
Sea Level Pressure  
Sea Level Pressure 29.72 in    
Wind  
Wind Speed 12 mph (SSW)    
Max Wind Speed 25 mph    
Max Gust Speed 31 mph    
Visibility 4 miles    
Events Fog , Rain    
T = Trace of Precipitation, MM = Missing Value Source: NWS Daily Summary

Daily Weather History Graph

Daily Weather History Graph

Search for Another Location

Airport:

Trip Planner

Search our weather history database for the weather conditions in past years. The results will help you decide how hot, cold, wet, or windy it might be!

Date:

Astronomy

Dec. 03, 2012 Rise Set
Actual Time 7:20 AM CST 4:14 PM CST
Civil Twilight 6:47 AM CST 4:48 PM CST
Nautical Twilight 6:09 AM CST 5:25 PM CST
Astronomical Twilight 5:34 AM CST 6:01 PM CST
Moon 9:10 PM CST (12/3) 10:36 AM CST (12/3)
Length of Visible Light 10h 01m
Length of Day
8h 53m
Waning Gibbous, 78% of the Moon is Illuminated
Dec 3
Waning Gibbous
Dec 6
Last Quarter
Dec 13
New
Dec 19
First Quarter
Dec 28
Full

Hourly Weather History & Observations

Time (CST) Temp. Windchill Dew Point Humidity Pressure Visibility Wind Dir Wind Speed Gust Speed Precip Events Conditions
12:53 AM 35.1 °F 29.3 °F 35.1 °F 100% 29.99 in 0.8 mi SE 6.9 mph - N/A   Mist
1:53 AM 36.0 °F 29.6 °F 36.0 °F 100% 29.98 in 0.5 mi SSE 8.1 mph - N/A Fog Fog
2:53 AM 37.0 °F 30.4 °F 37.0 °F 100% 29.97 in 0.8 mi SE 9.2 mph - N/A   Mist
3:53 AM 39.0 °F 32.3 °F 37.9 °F 96% 29.92 in 0.5 mi SSE 10.4 mph 18.4 mph N/A Fog Fog
4:44 AM 39.2 °F 33.6 °F 39.2 °F 100% 29.86 in 1.0 mi South 8.1 mph 16.1 mph N/A   Overcast
4:53 AM 39.9 °F 32.5 °F 39.0 °F 97% 29.91 in 1.8 mi South 12.7 mph - N/A   Overcast
5:53 AM 39.9 °F 33.9 °F 39.9 °F 100% 29.89 in 0.8 mi South 9.2 mph - N/A   Overcast
6:53 AM 41.0 °F 35.2 °F 41.0 °F 100% 29.86 in 0.8 mi SSE 9.2 mph - N/A   Mist
7:53 AM 41.0 °F 34.7 °F 41.0 °F 100% 29.84 in 0.5 mi SSE 10.4 mph 18.4 mph N/A Fog Fog
9:49 AM 44.6 °F 40.2 °F 42.8 °F 93% 29.73 in 0.2 mi SE 8.1 mph - N/A Fog Fog
9:53 AM 44.1 °F 39.5 °F 43.0 °F 96% 29.77 in 0.2 mi SSE 8.1 mph - N/A Fog Fog
10:07 AM 44.6 °F 40.2 °F 44.6 °F 100% 29.73 in 0.5 mi SE 8.1 mph 18.4 mph N/A Fog Fog
10:48 AM 46.4 °F 42.4 °F 44.6 °F 93% 29.70 in 1.0 mi SSE 8.1 mph - N/A   Overcast
10:53 AM 46.0 °F 40.2 °F 45.0 °F 96% 29.73 in 1.0 mi SSE 12.7 mph 17.3 mph N/A   Overcast
11:31 AM 46.4 °F 40.7 °F 46.4 °F 100% 29.65 in 0.5 mi SSE 12.7 mph 20.7 mph N/A Fog Fog
11:53 AM 46.9 °F - 46.0 °F 97% 29.68 in 0.5 mi South 12.7 mph 18.4 mph N/A Fog Fog
12:21 PM 48.2 °F - 46.4 °F 93% 29.63 in 1.0 mi SSE 13.8 mph 21.9 mph N/A   Overcast
12:53 PM 48.9 °F - 46.9 °F 93% 29.64 in 1.8 mi South 12.7 mph 19.6 mph N/A   Overcast
1:53 PM 50.0 °F - 48.9 °F 96% 29.62 in 1.2 mi South 9.2 mph 17.3 mph 0.01 in Rain Light Rain
2:09 PM 50.0 °F - 48.2 °F 94% 29.58 in 2.5 mi South 10.4 mph - 0.00 in Rain Light Rain
2:53 PM 52.0 °F - 51.1 °F 97% 29.60 in 3.0 mi South 12.7 mph 18.4 mph 0.01 in   Overcast
3:01 PM 51.8 °F - 51.8 °F 100% 29.58 in 2.0 mi South 13.8 mph 21.9 mph 0.00 in Rain Light Rain
3:17 PM 53.6 °F - 51.8 °F 94% 29.58 in 4.0 mi South 15.0 mph 21.9 mph 0.00 in   Overcast
3:53 PM 54.0 °F - 52.0 °F 93% 29.60 in 3.0 mi SSW 10.4 mph 18.4 mph 0.00 in   Overcast
4:13 PM 53.6 °F - 53.6 °F 100% 29.58 in 5.0 mi SSW 11.5 mph 18.4 mph 0.00 in Rain Light Rain
4:53 PM 55.0 °F - 53.1 °F 93% 29.61 in 5.0 mi SW 11.5 mph - 0.00 in   Overcast
5:20 PM 53.6 °F - 53.6 °F 100% 29.58 in 5.0 mi SW 12.7 mph 18.4 mph N/A   Overcast
5:53 PM 54.0 °F - 51.1 °F 90% 29.63 in 7.0 mi West 15.0 mph 28.8 mph N/A   Overcast
6:03 PM 53.6 °F - 48.2 °F 82% 29.61 in 7.0 mi West 19.6 mph 27.6 mph N/A   Mostly Cloudy
6:20 PM 51.8 °F - 46.4 °F 82% 29.62 in 7.0 mi West 23.0 mph 27.6 mph N/A   Scattered Clouds
6:31 PM 51.8 °F - 46.4 °F 82% 29.62 in 9.0 mi West 17.3 mph 31.1 mph N/A   Mostly Cloudy
6:53 PM 50.0 °F - 45.0 °F 83% 29.67 in 9.0 mi West 18.4 mph 29.9 mph N/A   Overcast
7:16 PM 48.2 °F - 44.6 °F 87% 29.66 in 9.0 mi West 15.0 mph - N/A   Mostly Cloudy
7:53 PM 46.9 °F - 42.1 °F 83% 29.71 in 10.0 mi West 13.8 mph 26.5 mph N/A   Partly Cloudy
8:32 PM 46.4 °F 39.0 °F 41.0 °F 81% 29.71 in 10.0 mi West 19.6 mph 29.9 mph N/A   Mostly Cloudy
8:51 PM 44.6 °F 37.8 °F 39.2 °F 81% 29.72 in 10.0 mi West 15.0 mph - N/A   Scattered Clouds
8:53 PM 45.0 °F 37.9 °F 39.9 °F 82% 29.75 in 10.0 mi West 16.1 mph - N/A   Partly Cloudy
9:53 PM 42.1 °F 34.5 °F 36.0 °F 79% 29.78 in 10.0 mi West 15.0 mph - N/A   Clear
10:53 PM 39.9 °F 32.1 °F 34.0 °F 79% 29.80 in 10.0 mi WSW 13.8 mph - N/A   Clear